Weather History for Marshfield, WI

Change the Weather History Date:

Thursday, May 30, 2013

  Actual Average Record
Temperature  
Mean Temperature 70 °F -  
Max Temperature 77 °F 72 °F 89 °F (1934)
Min Temperature 62 °F 48 °F 32 °F (1915)
Cooling Degree Days 4    
Growing Degree Days 20 (Base 50)    
Moisture  
Dew Point 65 °F    
Average Humidity 86    
Maximum Humidity 96    
Minimum Humidity 60    
Precipitation  
Precipitation 0.20 in - - ()
Sea Level Pressure  
Sea Level Pressure 29.73 in    
Wind  
Wind Speed 11 mph (South)    
Max Wind Speed 22 mph    
Max Gust Speed 31 mph    
Visibility 9 miles    
Events Rain    
Averages and records for this station are not official NWS values.
T = Trace of Precipitation, MM = Missing Value Source: NWS Daily Summary

Daily Weather History Graph

Daily Weather History Graph

Search for Another Location

Airport:

Trip Planner

Search our weather history database for the weather conditions in past years. The results will help you decide how hot, cold, wet, or windy it might be!

Date:

Astronomy

May. 30, 2013 Rise Set
Actual Time 5:19 AM CDT 8:37 PM CDT
Civil Twilight 4:43 AM CDT 9:13 PM CDT
Nautical Twilight 3:57 AM CDT 10:00 PM CDT
Astronomical Twilight 2:59 AM CDT 10:58 PM CDT
Moon 12:29 AM CDT (5/30) 11:38 AM CDT (5/30)
Length of Visible Light 16h 29m
Length of Day
15h 17m
Waning Gibbous, 62% of the Moon is Illuminated
May 30
Waning Gibbous
May 31
Last Quarter
Jun 8
New
Jun 16
First Quarter
Jun 23
Full

Hourly Weather History & Observations

Time (CDT) Temp. Dew Point Humidity Pressure Visibility Wind Dir Wind Speed Gust Speed Precip Events Conditions
12:54 AM 62.1 °F 61.0 °F 96% 29.82 in 10.0 mi South 5.8 mph - 0.00 in   Mostly Cloudy
1:54 AM 62.1 °F 61.0 °F 96% 29.82 in 5.0 mi NW 6.9 mph - 0.03 in Rain Heavy Rain
2:54 AM 62.1 °F 61.0 °F 96% 29.80 in 10.0 mi ESE 4.6 mph - 0.01 in   Mostly Cloudy
3:54 AM 62.1 °F 61.0 °F 96% 29.78 in 10.0 mi SE 4.6 mph - N/A   Clear
4:54 AM 64.0 °F 62.1 °F 93% 29.77 in 10.0 mi SSE 10.4 mph - N/A   Clear
5:54 AM 64.0 °F 62.1 °F 93% 29.78 in 9.0 mi SSE 12.7 mph - N/A   Clear
6:54 AM 64.9 °F 63.0 °F 93% 29.77 in 10.0 mi SSE 12.7 mph - N/A   Clear
7:54 AM 69.1 °F 64.9 °F 87% 29.76 in 10.0 mi South 12.7 mph 25.3 mph N/A   Partly Cloudy
8:18 AM 69.8 °F 64.4 °F 83% 29.77 in 10.0 mi South 13.8 mph - N/A   Mostly Cloudy
8:35 AM 69.8 °F 64.4 °F 83% 29.77 in 10.0 mi South 12.7 mph 20.7 mph N/A   Mostly Cloudy
8:54 AM 71.1 °F 66.0 °F 84% 29.77 in 10.0 mi South 16.1 mph 23.0 mph N/A   Overcast
9:23 AM 71.6 °F 66.2 °F 83% 29.77 in 10.0 mi South 16.1 mph 23.0 mph N/A   Scattered Clouds
9:52 AM 71.6 °F 66.2 °F 83% 29.77 in 10.0 mi South 19.6 mph 25.3 mph N/A   Mostly Cloudy
9:54 AM 72.0 °F 66.0 °F 81% 29.76 in 10.0 mi South 18.4 mph 24.2 mph N/A   Mostly Cloudy
10:32 AM 73.4 °F 66.2 °F 78% 29.76 in 10.0 mi South 16.1 mph 23.0 mph N/A   Scattered Clouds
10:54 AM 75.0 °F 66.9 °F 76% 29.74 in 10.0 mi South 16.1 mph - N/A   Clear
11:54 AM 77.0 °F 68.0 °F 74% 29.75 in 10.0 mi South 12.7 mph - N/A   Mostly Cloudy
12:54 PM 77.0 °F 66.9 °F 71% 29.72 in 10.0 mi South 13.8 mph 21.9 mph 0.00 in   Mostly Cloudy
1:21 PM 69.8 °F 66.2 °F 88% 29.72 in 1.8 mi South 16.1 mph 28.8 mph 0.10 in Rain Heavy Rain
1:30 PM 69.8 °F 66.2 °F 88% 29.73 in 3.0 mi South 12.7 mph - 0.10 in Rain Light Rain
1:54 PM 70.0 °F 68.0 °F 93% 29.73 in 2.5 mi South 21.9 mph 31.1 mph 0.16 in Rain Rain
2:04 PM 69.8 °F 66.2 °F 88% 29.72 in 7.0 mi South 16.1 mph 24.2 mph 0.00 in Rain Light Rain
2:54 PM 71.1 °F 66.9 °F 87% 29.70 in 10.0 mi SSE 11.5 mph - 0.00 in   Partly Cloudy
3:54 PM 73.9 °F 68.0 °F 82% 29.68 in 10.0 mi South 15.0 mph - 0.00 in Rain Light Rain
4:54 PM 77.0 °F 62.1 °F 60% 29.67 in 10.0 mi South 16.1 mph 25.3 mph 0.00 in   Overcast
5:54 PM 73.0 °F 66.0 °F 79% 29.66 in 10.0 mi South 10.4 mph - 0.00 in   Partly Cloudy
6:54 PM 72.0 °F 66.0 °F 81% 29.68 in 10.0 mi South 12.7 mph 23.0 mph N/A   Partly Cloudy
7:54 PM 70.0 °F 66.0 °F 87% 29.67 in 8.0 mi SSE 11.5 mph - 0.00 in Rain Light Rain
8:54 PM 69.1 °F 66.0 °F 90% 29.63 in 10.0 mi SE 9.2 mph - 0.00 in Rain Light Rain
9:28 PM 68.0 °F 66.2 °F 94% 29.67 in 10.0 mi SSE 8.1 mph - 0.00 in   Mostly Cloudy
9:35 PM 68.0 °F 66.2 °F 94% 29.67 in 10.0 mi SSE 8.1 mph - 0.00 in   Scattered Clouds
9:54 PM 68.0 °F 66.0 °F 93% 29.66 in 10.0 mi SSE 10.4 mph - 0.00 in   Partly Cloudy
10:54 PM 68.0 °F 64.0 °F 87% 29.66 in 10.0 mi SSE 19.6 mph 27.6 mph N/A   Overcast
11:54 PM 66.0 °F 61.0 °F 84% 29.67 in 10.0 mi South 17.3 mph 24.2 mph N/A   Overcast